This is the latest recevied weather packets stored in our database for station/object AJ5AG. If no packets are shown the sender has not sent any weather packets the latest 10 day(s).
| Time | Temp. | Humidity | Pressure | Rain* | Wind** | Luminosity | Snow |
|---|---|---|---|---|---|---|---|
| 1777637048 | 15.56° C | 98% | 1015.8 hPa | 6.1 mm | - | 1 W/m² | - |
| 1777636744 | 15.56° C | 98% | 1015.3 hPa | 6.1 mm | - | 1 W/m² | - |
| 1777636440 | 15.56° C | 98% | 1015.3 hPa | 4.83 mm | - | 1 W/m² | - |
| 1777636136 | 15.56° C | 98% | 1015.1 hPa | 6.1 mm | - | 0 W/m² | - |
| 1777635832 | 15.56° C | 98% | 1015.3 hPa | 4.32 mm | - | 0 W/m² | - |
| 1777635528 | 15.56° C | 98% | 1015.3 hPa | 6.1 mm | - | 0 W/m² | - |
| 1777635225 | 15.56° C | 98% | 1014.9 hPa | 6.1 mm | - | 0 W/m² | - |
| 1777634921 | 15.56° C | 98% | 1014.5 hPa | 4.83 mm | - | 0 W/m² | - |
| 1777634619 | 15.56° C | 98% | 1014.5 hPa | 4.83 mm | - | 0 W/m² | - |
| 1777634316 | 15.56° C | 98% | 1014.5 hPa | 3.56 mm | - | 0 W/m² | - |
| 1777634012 | 15.56° C | 98% | 1014.5 hPa | 3.05 mm | - | 0 W/m² | - |
| 1777633709 | 15.56° C | 98% | 1014.5 hPa | 3.05 mm | - | 0 W/m² | - |
| 1777633407 | 15.56° C | 98% | 1014.7 hPa | 3.05 mm | - | 0 W/m² | - |
| 1777633104 | 15.56° C | 98% | 1014.8 hPa | 3.05 mm | - | 0 W/m² | - |
| 1777632800 | 15.56° C | 98% | 1014.8 hPa | 1.27 mm | - | 0 W/m² | - |
| 1777632497 | 15.56° C | 98% | 1014.9 hPa | 1.27 mm | - | 0 W/m² | - |
| 1777632194 | 15.56° C | 98% | 1014.9 hPa | 1.78 mm | - | 0 W/m² | - |
| 1777631891 | 15.56° C | 98% | 1014.8 hPa | 1.27 mm | - | 0 W/m² | - |
| 1777631590 | 15.56° C | 98% | 1014.8 hPa | 4.32 mm | - | 0 W/m² | - |
| 1777631286 | 15.56° C | 98% | 1014.5 hPa | 6.6 mm | - | 0 W/m² | - |
| 1777630983 | 15.56° C | 98% | 1014.3 hPa | 7.87 mm | - | 0 W/m² | - |
| 1777630679 | 15.56° C | 98% | 1014.3 hPa | 8.89 mm | - | 0 W/m² | - |
| 1777630376 | 16.11° C | 98% | 1014.8 hPa | 7.11 mm | - | 0 W/m² | - |
| 1777630074 | 15.56° C | 98% | 1015.4 hPa | 9.65 mm | - | 0 W/m² | - |
| 1777629771 | 16.11° C | 98% | 1015.5 hPa | 10.67 mm | - | 0 W/m² | - |
* Rain latest hour (hover to see other rain measurements)
** Current wind speed in m/s (hover to see current wind gust speed)